Regional Weather Roundup
Issued by NWS Northern Indiana

Home | Current Version | Previous Version | Graphics & Text | Print | Product List | Glossary On
Versions: 1 2 3 4 5 6 7 8 9 10 11 12 13 14 15 16 17 18 19 20 21 22 23 24 25 26 27 28 29 30 31 32 33 34 35 36 37 38 39 40 41 42 43 44 45 46 47 48 49 50
000
ASUS43 KIWX 200800
RWRIWX

KIWX WEATHER ROUNDUP
NATIONAL WEATHER SERVICE NORTHERN INDIANA
300 AM EST SAT DEC 20 2014

NOTE: "FAIR" INDICATES FEW OR NO CLOUDS BELOW 12,000 FEET WITH NO
SIGNIFICANT WEATHER AND/OR OBSTRUCTIONS TO VISIBILITY.

* THESE STATIONS ARE NOT UNDER NWS QUALITY CONTROL. THEY ALSO MAY NOT
  REPORT WEATHER SUCH AS PRECIPITATION OR FOG.

INZ001>027-200900-
NORTHERN INDIANA

CITY           SKY/WX    TMP DP  RH WIND       PRES   REMARKS
SOUTH BEND     CLOUDY    30  23  75 CALM      30.28R
GOSHEN         CLOUDY    26  23  88 CALM      30.27R
ANGOLA*        CLOUDY    19  18  93 CALM      30.26R
FORT WAYNE     CLOUDY    26  22  84 CALM      30.28R

$$
INZ028>050-200900-
CENTRAL INDIANA

CITY           SKY/WX    TMP DP  RH WIND       PRES   REMARKS
LAFAYETTE      CLOUDY    28  27  96 CALM      30.29R FOG
KOKOMO*        CLOUDY    28  27  93 CALM      30.28R
MUNCIE*        CLOUDY    29  26  89 CALM      30.27R
INDIANAPOLIS   CLOUDY    28  24  85 CALM      30.27R

$$
MIZ043>046-050>051-056>058-064>065-071>073-077>080-200900-
SOUTHWEST LOWER MICHIGAN

CITY           SKY/WX    TMP DP  RH WIND       PRES   REMARKS
BATTLE CREEK   MOCLDY    21  16  81 CALM      30.27R
BENTON HARBOR  CLOUDY    25  21  85 CALM      30.27S
COLDWATER*     CLOUDY    25  23  93 MISG      30.26R FOG
HILLSDALE*     CLOUDY    26  25  94 CALM      30.25R
HOLLAND        PTCLDY    22  17  81 CALM      30.28R
GRAND RAPIDS   PTCLDY    19  16  88 CALM      30.27R
KALAMAZOO      PTCLDY    21  18  88 CALM      30.27R FOG
STURGIS*       MOCLDY    21  19  93 CALM      30.26R FOG
THREE RIVERS*  FAIR      22  20  93 CALM      30.27S FOG

$$
OHZ001>008-015>018-024>025-200900-
NORTHWEST OHIO

CITY           SKY/WX    TMP DP  RH WIND       PRES   REMARKS
DEFIANCE       CLOUDY    29  23  78 CALM      30.29R
FINDLAY        CLOUDY    30  21  69 SE3       30.27R
TOLEDO EXPRESS CLOUDY    29  21  72 CALM      30.28R
TOLEDO METCALF CLOUDY    30  23  75 CALM      30.29R
LIMA           CLOUDY    30  23  75 S5        30.27R WCI  25

$$
AND FOR LAKE MICHIGAN COASTAL AND OPEN LAKE BUOY OBSERVATIONS

STATION/POSITION TEMP    WIND        PRES    VSBY  WAVE
                 AIR SEA DIR/SP/G                  HT/PER
                 (F)     (DEG/KT/KT) (MB)    (MI)  (FT/S)
CALUMET HARBOR    32     200/  4/  4 1024.0R
SAINT JOSEPH      30      CALM  /  3 1025.4F

$$
&&


USA.gov is the U.S. government's official web portal to all federal, state and local government web resources and services.